1493924400.03,39239,14.06,73688.5,-1.55,-4.89,-3.95,0,*59
1493924401.26,39240,14.0,73690.8,-1.55,-5.27,-4.21,0,*5A
1493924402.49,39241,14.0,73694.8,-1.55,-5.61,-4.49,0,*57
1493924403.72,39242,14.06,73688.0,-1.59,-6.13,-4.85,0,*5E
1493924404.94,39243,14.06,73690.3,-1.55,-6.93,-5.35,0,*51
1493924406.17,39244,14.06,73692.5,-1.59,-7.91,-6.01,0,*5D
1493924407.38,39245,14.06,73694.5,-1.55,-9.05,-6.81,0,*5B
1493924408.6,39246,14.0,73692.5,-1.55,-10.09,-7.73,0,*60
1493924409.8,39247,14.06,73694.0,-1.55,-11.45,-8.67,0,*62
1493924411.04,39248,14.06,73694.5,-1.55,-13.61,-9.93,0,*63
1493924412.28,39249,14.0,73694.5,-1.59,-15.25,-11.07,0,*5C
1493924413.49,39250,14.0,73692.0,-1.59,-17.69,-12.39,0,*50
1493924414.75,39251,14.0,73694.3,-1.55,-19.61,-13.29,0,*5B
1493924415.97,39252,14.0,73694.8,-1.55,-19.47,-14.23,0,*51
1493924417.19,39253,14.0,73688.3,-1.59,-19.17,-15.25,0,*5E
1493924418.41,39254,14.06,73694.0,-1.59,-18.73,-15.29,0,*56
1493924419.68,39255,14.06,73694.3,-1.53,-17.35,-15.81,0,*52
1493924420.95,39256,14.0,73694.0,-1.55,-17.41,-17.41,0,*5A
1493924422.19,39257,14.06,73694.5,-1.59,-20.53,-20.69,0,*5E
1493924423.46,39258,14.0,73694.8,-1.59,-24.71,-24.83,0,*55
1493924424.73,39259,14.0,73694.5,-1.59,-28.21,-28.21,0,*59
1493924425.97,39260,14.0,73698.3,-1.61,-29.45,-28.37,0,*5C
1493924427.21,39261,14.0,73698.8,-1.61,-29.83,-27.71,0,*5A
1493924428.43,39262,14.0,73694.0,-1.63,-29.57,-27.55,0,*54
1493924429.67,39263,14.0,73692.5,-1.63,-29.07,-27.35,0,*56
1493924430.9,39264,14.06,73692.8,-1.63,-28.47,-26.87,0,*5C
1493924432.14,39265,14.0,73690.0,-1.63,-26.93,-26.61,0,*52
1493924433.41,39266,14.06,73692.3,-1.65,-25.45,-26.81,0,*51
1493924434.7,39267,14.0,73690.5,-1.65,-23.85,-25.75,0,*52
1493924435.91,39268,14.0,73690.0,-1.67,-21.39,-24.05,0,*5C
1493924437.15,39269,14.0,73690.3,-1.65,-18.65,-21.77,0,*5C
1493924438.36,39270,14.0,73690.0,-1.67,-16.45,-19.13,0,*53
1493924439.62,39271,14.06,73690.3,-1.65,-13.97,-16.41,0,*52
1493924440.91,39272,14.06,73686.3,-1.65,-12.79,-15.35,0,*50
1493924442.17,39273,14.0,73684.8,-1.67,-12.53,-14.75,0,*5E
1493924443.41,39274,14.06,73688.8,-1.67,-12.65,-15.25,0,*58
1493924444.65,39275,14.06,73688.0,-1.67,-13.73,-16.31,0,*59
1493924445.86,39276,14.0,73684.8,-1.67,-15.25,-17.83,0,*57
1493924447.13,39277,14.0,73688.8,-1.67,-17.03,-19.27,0,*50
1493924448.36,39278,14.06,73692.0,-1.67,-18.41,-21.33,0,*58
1493924449.61,39279,14.0,73690.5,-1.67,-19.27,-22.93,0,*51
1493924450.84,39280,14.06,73694.0,-1.67,-20.29,-24.21,0,*5C
1493924452.05,39281,14.06,73694.0,-1.67,-21.17,-24.57,0,*50
1493924453.32,39282,14.06,73696.0,-1.65,-20.19,-24.11,0,*5C
1493924454.53,39283,14.06,73690.5,-1.67,-19.47,-23.75,0,*5B
1493924455.82,39284,14.06,73694.5,-1.69,-20.53,-26.71,0,*5C
1493924457.08,39285,14.0,73694.5,-1.69,-22.93,-29.51,0,*5E
1493924458.33,39286,14.06,73694.3,-1.69,-22.63,-28.47,0,*54
1493924459.59,39287,14.0,73684.8,-1.71,-21.57,-26.71,0,*53
1493924460.8,39288,14.0,73684.5,-1.71,-20.63,-24.57,0,*5C
1493924462.03,39289,14.0,73686.3,-1.71,-20.25,-23.33,0,*5A
1493924463.26,39290,14.0,73688.8,-1.71,-20.93,-23.33,0,*5F
1493924464.5,39291,14.06,73694.0,-1.71,-22.63,-24.21,0,*57
1493924465.74,39292,14.0,73694.5,-1.71,-23.43,-24.11,0,*54
1493924466.98,39293,14.0,73692.3,-1.71,-24.11,-24.77,0,*55
1493924468.23,39294,14.06,73694.8,-1.71,-27.19,-27.19,0,*52
1493924469.47,39295,14.0,73688.8,-1.73,-29.79,-29.13,0,*5D
1493924470.73,39296,14.0,73694.3,-1.73,-30.61,-30.27,0,*50
1493924471.98,39297,14.06,73696.5,-1.73,-29.61,-29.73,0,*50
1493924473.27,39298,14.06,73692.5,-1.73,-28.63,-28.91,0,*51
1493924474.53,39299,14.0,73686.8,-1.75,-25.97,-27.45,0,*56
1493924475.79,39300,14.06,73694.0,-1.75,-23.95,-26.93,0,*59
1493924477.0,39301,14.06,73690.3,-1.75,-22.53,-26.23,0,*58
1493924478.23,39302,14.06,73692.0,-1.75,-21.09,-26.81,0,*5F
1493924479.44,39303,14.06,73692.0,-1.75,-20.93,-27.55,0,*54
1493924480.67,39304,14.06,73694.5,-1.75,-20.29,-27.23,0,*53
1493924481.9,39305,14.0,73690.3,-1.75,-19.85,-26.65,0,*5D
1493924483.14,39306,14.06,73692.5,-1.75,-19.71,-25.75,0,*57
1493924484.39,39307,14.0,73690.3,-1.75,-19.57,-24.61,0,*56
1493924485.64,39308,14.0,73686.0,-1.77,-19.41,-23.39,0,*56
1493924486.92,39309,14.06,73688.8,-1.77,-19.13,-22.31,0,*59
1493924488.18,39310,14.06,73684.5,-1.77,-18.65,-21.27,0,*55
1493924489.46,39311,14.06,73684.0,-1.77,-17.63,-20.15,0,*5D
1493924490.66,39312,14.06,73684.3,-1.81,-16.79,-19.07,0,*54
1493924491.92,39313,14.0,73682.0,-1.77,-15.81,-18.21,0,*5D
1493924493.15,39314,14.0,73682.5,-1.75,-15.49,-17.25,0,*57
1493924494.38,39315,14.06,73684.3,-1.81,-15.15,-16.17,0,*54
1493924495.6,39316,14.0,73680.5,-1.75,-14.61,-15.49,0,*56
1493924496.81,39317,14.0,73680.0,-1.75,-14.65,-15.71,0,*58
1493924498.02,39318,14.0,73678.0,-1.75,-15.07,-15.71,0,*52
1493924499.25,39319,14.0,73674.8,-1.81,-15.15,-16.09,0,*57
1493924500.49,39320,14.0,73676.0,-1.77,-15.25,-15.99,0,*5D
1493924501.74,39321,14.06,73678.5,-1.81,-15.81,-16.51,0,*5C
1493924502.97,39322,14.06,73678.8,-1.81,-16.09,-16.37,0,*5C
1493924504.21,39323,14.0,73682.8,-1.81,-16.03,-15.81,0,*59
1493924505.44,39324,14.0,73682.8,-1.77,-15.07,-15.07,0,*5E
1493924506.67,39325,14.0,73686.5,-1.81,-14.61,-15.43,0,*57
1493924507.93,39326,14.06,73684.0,-1.77,-15.21,-16.75,0,*5E
1493924509.15,39327,14.0,73672.8,-1.81,-15.99,-17.93,0,*5C
1493924510.38,39328,14.06,73672.3,-1.77,-17.31,-18.79,0,*51
1493924511.65,39329,14.0,73680.3,-1.77,-18.21,-19.57,0,*53
1493924512.92,39330,14.06,73686.8,-1.77,-19.13,-20.53,0,*55
1493924514.19,39331,14.06,73686.0,-1.77,-20.39,-21.23,0,*50
1493924515.45,39332,14.06,73682.5,-1.81,-22.17,-21.97,0,*5B
1493924516.68,39333,14.0,73684.8,-1.81,-23.65,-22.93,0,*59
1493924517.89,39334,14.0,73678.5,-1.81,-24.51,-23.79,0,*5B
1493924519.1,39335,14.06,73686.3,-1.81,-25.09,-24.61,0,*58
1493924520.33,39336,14.06,73686.8,-1.81,-24.77,-25.03,0,*56
1493924521.54,39337,14.06,73686.8,-1.81,-24.77,-25.39,0,*5E
1493924522.79,39338,14.0,73680.3,-1.81,-25.03,-26.17,0,*5C
1493924524.02,39339,14.0,73680.0,-1.81,-25.75,-27.07,0,*5C
1493924525.29,39340,14.0,73678.0,-1.83,-26.65,-26.77,0,*54
1493924526.5,39341,14.06,73682.0,-1.81,-27.07,-25.87,0,*5E
1493924527.73,39342,14.06,73682.3,-1.81,-27.03,-26.17,0,*53
1493924528.97,39343,14.06,73676.8,-1.83,-26.39,-26.03,0,*5D
1493924530.23,39344,14.06,73680.3,-1.81,-24.41,-24.71,0,*52
1493924531.49,39345,14.06,73678.5,-1.83,-24.41,-24.93,0,*5D
1493924532.78,39346,14.06,73684.0,-1.83,-24.87,-25.03,0,*5C
1493924534.01,39347,14.0,73686.8,-1.83,-26.07,-25.91,0,*5C
1493924535.27,39348,14.06,73686.5,-1.83,-27.23,-27.03,0,*5D
1493924536.47,39349,14.0,73690.3,-1.85,-27.71,-27.93,0,*54
1493924537.7,39350,14.06,73690.0,-1.85,-28.47,-29.67,0,*53
1493924538.96,39351,14.0,73686.0,-1.83,-28.91,-29.95,0,*52
1493924540.22,39352,14.06,73686.0,-1.83,-28.59,-29.57,0,*5B
1493924541.48,39353,14.06,73688.8,-1.83,-28.53,-29.73,0,*56
1493924542.73,39354,14.0,73684.3,-1.85,-28.43,-30.05,0,*5F
1493924543.96,39355,14.06,73682.3,-1.85,-28.25,-29.95,0,*5F
1493924545.19,39356,14.0,73686.3,-1.83,-27.77,-29.79,0,*50
1493924546.46,39357,14.06,73690.5,-1.83,-26.93,-28.53,0,*53
1493924547.71,39358,14.06,73698.0,-1.85,-26.71,-27.39,0,*55
1493924548.95,39359,14.0,73692.0,-1.85,-26.71,-27.45,0,*5F
1493924550.22,39360,14.0,73696.8,-1.85,-26.97,-27.99,0,*5C
1493924551.47,39361,14.0,73698.0,-1.85,-26.77,-28.47,0,*5F
1493924552.68,39362,14.06,73696.3,-1.85,-25.23,-27.29,0,*59
1493924553.91,39363,14.06,73696.3,-1.85,-24.47,-27.39,0,*5A
1493924555.14,39364,14.06,73696.8,-1.89,-22.87,-27.19,0,*59
1493924556.38,39365,14.06,73696.0,-1.87,-21.43,-27.45,0,*54
1493924557.62,39366,14.0,73694.3,-1.89,-20.89,-27.99,0,*5F
1493924558.86,39367,14.06,73696.5,-1.87,-20.29,-26.77,0,*5B
1493924560.1,39368,14.06,73696.0,-1.87,-19.51,-25.65,0,*51
1493924561.36,39369,14.06,73700.5,-1.87,-18.93,-25.13,0,*5E
1493924562.63,39370,14.0,73698.3,-1.87,-18.59,-24.15,0,*57
1493924563.88,39371,14.0,73696.0,-1.87,-16.89,-21.53,0,*52
1493924565.09,39372,14.0,73692.8,-1.89,-14.89,-18.73,0,*55
1493924566.32,39373,14.06,73690.8,-1.87,-12.97,-16.55,0,*59
1493924567.53,39374,14.06,73692.3,-1.85,-11.41,-14.65,0,*55
1493924568.78,39375,14.06,73690.3,-1.87,-10.01,-13.61,0,*50
1493924570.06,39376,14.06,73690.0,-1.87,-9.15,-12.75,0,*6A
1493924571.28,39377,14.0,73690.5,-1.87,-8.21,-12.39,0,*65
1493924572.56,39378,14.06,73690.3,-1.87,-7.57,-13.61,0,*68
1493924573.76,39379,14.0,73686.8,-1.85,-7.53,-14.33,0,*6F
1493924574.99,39380,14.06,73690.3,-1.85,-7.57,-14.23,0,*6C
1493924576.26,39381,14.06,73688.5,-1.83,-7.39,-13.61,0,*62
1493924577.48,39382,14.06,73690.8,-1.85,-7.27,-12.47,0,*6D
1493924578.73,39383,14.06,73690.3,-1.87,-7.15,-11.07,0,*68
1493924579.97,39384,14.06,73688.3,-1.85,-6.93,-10.01,0,*65
1493924581.17,39385,14.06,73690.3,-1.85,-7.19,-9.75,0,*5C
1493924582.38,39386,14.06,73690.0,-1.85,-7.39,-9.71,0,*59
1493924583.63,39387,14.0,73690.0,-1.83,-7.65,-9.67,0,*50
1493924584.88,39388,14.0,73686.8,-1.83,-8.03,-9.93,0,*5B
1493924586.14,39389,14.06,73692.0,-1.85,-8.51,-10.41,0,*6C
1493924587.36,39390,14.06,73692.0,-1.83,-9.23,-11.23,0,*63
1493924588.61,39391,14.06,73690.5,-1.83,-9.83,-12.29,0,*61
1493924589.88,39392,14.0,73686.3,-1.83,-10.35,-13.33,0,*5D
1493924591.15,39393,14.0,73688.0,-1.83,-11.63,-15.29,0,*53
1493924592.41,39394,14.06,73692.0,-1.83,-13.55,-18.01,0,*54
1493924593.65,39395,14.0,73692.5,-1.83,-16.97,-20.59,0,*58
1493924594.89,39396,14.0,73700.0,-1.83,-19.37,-22.27,0,*55
1493924596.12,39397,14.06,73700.8,-1.83,-21.39,-23.79,0,*5B
1493924597.37,39398,14.06,73696.5,-1.85,-21.57,-23.69,0,*5B
1493924598.59,39399,14.06,73696.5,-1.85,-21.39,-23.53,0,*5B
1493924599.85,39400,14.06,73696.5,-1.83,-19.99,-21.87,0,*50
1493924601.09,39401,14.06,73692.3,-1.83,-18.41,-19.71,0,*57
1493924602.35,39402,14.06,73694.8,-1.83,-18.11,-19.31,0,*55
1493924603.61,39403,14.06,73694.5,-1.83,-17.87,-18.31,0,*55
1493924604.85,39404,14.06,73694.0,-1.83,-16.45,-15.49,0,*5F
1493924606.1,39405,14.06,73692.8,-1.85,-14.93,-13.61,0,*5D
1493924607.34,39406,14.06,73694.3,-1.83,-13.15,-12.29,0,*5C
1493924608.61,39407,14.0,73690.5,-1.83,-11.85,-11.33,0,*5E
1493924609.84,39408,14.06,73694.0,-1.85,-11.37,-11.23,0,*5F
1493924611.08,39409,14.0,73692.5,-1.81,-11.45,-11.59,0,*52
1493924612.34,39410,14.0,73692.8,-1.83,-10.75,-10.89,0,*56
1493924613.56,39411,14.06,73694.3,-1.83,-10.05,-10.53,0,*57
1493924614.82,39412,14.0,73690.3,-1.83,-9.53,-10.35,0,*6F
1493924616.05,39413,14.06,73688.8,-1.83,-9.27,-10.23,0,*6A
1493924617.28,39414,14.06,73692.3,-1.83,-9.23,-9.93,0,*5A
1493924618.51,39415,14.06,73692.3,-1.81,-9.11,-10.09,0,*63
1493924619.77,39416,14.06,73688.8,-1.83,-9.11,-10.09,0,*62
1493924621.04,39417,14.06,73692.0,-1.83,-9.11,-10.35,0,*6C
1493924622.32,39418,14.0,73688.3,-1.83,-9.41,-10.63,0,*65
1493924623.55,39419,14.0,73690.0,-1.81,-9.79,-11.07,0,*6E
1493924624.76,39420,14.0,73688.5,-1.81,-10.35,-11.45,0,*52
1493924625.99,39421,14.06,73694.0,-1.81,-10.93,-11.85,0,*53
1493924627.23,39422,14.06,73692.0,-1.77,-11.41,-12.21,0,*5A
1493924628.43,39423,14.0,73692.3,-1.81,-12.47,-13.15,0,*51
1493924629.66,39424,14.0,73694.8,-1.81,-13.69,-14.05,0,*5D
1493924630.89,39425,14.06,73696.0,-1.81,-14.75,-14.89,0,*52
1493924632.15,39426,14.06,73694.0,-1.83,-15.15,-15.89,0,*55
1493924633.41,39427,14.06,73688.5,-1.77,-15.35,-16.37,0,*5B
1493924634.64,39428,14.06,73690.8,-1.81,-15.49,-16.51,0,*56
1493924635.9,39429,14.06,73688.5,-1.81,-15.43,-16.09,0,*50
1493924637.16,39430,14.0,73684.0,-1.81,-14.51,-14.93,0,*5B
1493924638.35,39431,14.0,73690.0,-1.81,-13.47,-13.43,0,*50
1493924639.58,39432,14.06,73688.5,-1.81,-12.61,-12.47,0,*53
1493924640.84,39433,14.06,73686.3,-1.77,-11.77,-11.41,0,*5A
1493924642.08,39434,14.06,73686.3,-1.77,-10.93,-10.53,0,*54
1493924643.3,39435,14.0,73686.0,-1.81,-10.35,-10.19,0,*5E
1493924644.57,39436,14.06,73686.5,-1.77,-9.57,-9.61,0,*5F
1493924645.82,39437,14.06,73690.5,-1.77,-9.11,-9.23,0,*5A
1493924647.05,39438,14.0,73688.5,-1.77,-8.63,-8.63,0,*54
1493924648.24,39439,14.06,73688.5,-1.81,-8.17,-8.17,0,*5C
1493924649.48,39440,14.06,73692.8,-1.81,-7.77,-8.03,0,*5E
1493924650.73,39441,14.0,73686.8,-1.77,-7.83,-7.73,0,*55
1493924652.02,39442,14.06,73690.0,-1.77,-7.57,-7.43,0,*5C
1493924653.26,39443,14.0,73688.5,-1.81,-7.61,-7.35,0,*50
1493924654.5,39444,14.06,73690.8,-1.77,-7.19,-6.81,0,*5F
1493924655.73,39445,14.06,73690.8,-1.77,-7.15,-6.51,0,*5F
1493924656.98,39446,14.06,73692.3,-1.77,-7.01,-6.35,0,*5B
1493924658.2,39447,14.0,73690.0,-1.77,-6.89,-6.01,0,*5C
1493924659.45,39448,14.06,73692.3,-1.77,-6.69,-5.81,0,*56
1493924660.7,39449,14.06,73694.8,-1.77,-6.69,-5.61,0,*59
1493924661.92,39450,14.06,73692.3,-1.75,-6.63,-5.47,0,*5D
1493924663.13,39451,14.06,73688.3,-1.75,-6.51,-5.35,0,*58
1493924664.36,39452,14.0,73680.0,-1.75,-6.51,-5.23,0,*5C
1493924665.59,39453,14.06,73684.0,-1.75,-6.47,-5.19,0,*53
1493924666.82,39454,14.0,73684.0,-1.75,-6.59,-5.11,0,*53
1493924668.07,39455,14.0,73682.5,-1.73,-6.47,-5.07,0,*5C
1493924669.3,39456,14.06,73690.0,-1.75,-6.69,-5.19,0,*5A
1493924670.54,39457,14.06,73686.5,-1.73,-7.01,-5.43,0,*5D
1493924671.77,39458,14.06,73686.8,-1.75,-7.39,-5.55,0,*58
1493924673.04,39459,14.0,73682.5,-1.73,-7.65,-5.65,0,*55
1493924674.3,39460,14.0,73682.8,-1.73,-7.91,-5.77,0,*57
1493924675.53,39461,14.0,73680.3,-1.71,-8.21,-5.85,0,*5D
1493924676.75,39462,14.0,73686.5,-1.73,-8.59,-6.05,0,*58
1493924677.97,39463,14.06,73688.8,-1.73,-8.63,-6.05,0,*50
1493924679.19,39464,14.06,73694.0,-1.73,-8.75,-6.09,0,*5C
1493924680.44,39465,14.06,73688.8,-1.73,-9.01,-6.19,0,*5E
1493924681.66,39466,14.06,73692.0,-1.73,-8.97,-6.09,0,*52
1493924682.91,39467,14.06,73692.5,-1.73,-8.97,-6.19,0,*52
1493924684.16,39468,14.06,73690.3,-1.73,-9.01,-6.23,0,*5A
1493924685.39,39469,14.06,73688.8,-1.73,-9.01,-6.43,0,*5D
1493924686.59,39470,14.06,73690.5,-1.71,-9.01,-6.55,0,*50
1493924687.83,39471,14.0,73684.8,-1.71,-9.11,-6.59,0,*5C
1493924689.06,39472,14.06,73690.0,-1.71,-9.11,-6.73,0,*57
1493924690.29,39473,14.0,73690.0,-1.71,-9.11,-6.85,0,*5F
1493924691.49,39474,14.0,73690.0,-1.71,-9.01,-6.89,0,*55
1493924692.75,39475,14.0,73688.0,-1.73,-9.11,-7.11,0,*57
1493924694.02,39476,14.06,73690.5,-1.73,-9.41,-7.35,0,*57
1493924695.27,39477,14.0,73690.5,-1.73,-9.93,-7.65,0,*5C
1493924696.49,39478,14.06,73692.0,-1.71,-10.53,-8.03,0,*6A
1493924697.74,39479,14.0,73690.3,-1.71,-11.07,-8.51,0,*6C
1493924698.98,39480,14.06,73694.0,-1.71,-11.89,-9.01,0,*68
1493924700.2,39481,14.06,73694.3,-1.71,-12.93,-9.57,0,*62
1493924701.42,39482,14.0,73690.3,-1.71,-14.19,-10.53,0,*59
1493924702.65,39483,14.06,73688.5,-1.71,-15.01,-11.11,0,*57
1493924703.91,39484,14.06,73692.0,-1.69,-15.71,-11.89,0,*5F
1493924705.15,39485,14.06,73688.8,-1.71,-16.97,-12.79,0,*50
1493924706.36,39486,14.0,73690.3,-1.71,-18.11,-13.19,0,*54
1493924707.62,39487,14.06,73692.5,-1.71,-18.59,-13.01,0,*50
1493924708.88,39488,14.06,73688.0,-1.71,-18.59,-12.35,0,*59
1493924710.09,39489,14.06,73688.8,-1.71,-16.97,-11.23,0,*50
1493924711.33,39490,14.06,73690.0,-1.71,-15.35,-10.23,0,*52
1493924712.56,39491,14.0,73686.8,-1.71,-13.19,-9.15,0,*66
1493924713.79,39492,14.06,73688.8,-1.71,-11.59,-8.21,0,*65
1493924715.01,39493,14.06,73688.3,-1.71,-10.09,-7.69,0,*63
1493924716.23,39494,14.06,73688.3,-1.71,-9.41,-7.53,0,*59
1493924717.49,39495,14.06,73688.5,-1.71,-9.15,-7.69,0,*50
1493924718.71,39496,14.06,73688.5,-1.71,-9.27,-7.95,0,*51
1493924719.91,39497,14.06,73690.5,-1.71,-9.67,-8.45,0,*56
1493924721.14,39498,14.06,73690.8,-1.71,-10.27,-9.11,0,*65
1493924722.37,39499,14.06,73692.0,-1.71,-11.11,-9.83,0,*6B
1493924723.63,39500,14.0,73688.8,-1.69,-12.15,-10.89,0,*56
1493924724.89,39501,14.0,73688.3,-1.69,-13.37,-12.03,0,*56
1493924726.15,39502,14.06,73698.5,-1.67,-14.55,-13.01,0,*5B
1493924727.39,39503,14.0,73692.0,-1.71,-15.81,-14.29,0,*58
1493924728.62,39504,14.06,73696.3,-1.71,-17.21,-15.15,0,*59
1493924729.88,39505,14.06,73694.3,-1.69,-18.45,-15.89,0,*59
1493924731.17,39506,14.06,73692.8,-1.69,-19.61,-16.69,0,*50
1493924732.41,39507,14.0,73690.3,-1.71,-20.73,-17.07,0,*58
1493924733.7,39508,14.06,73692.8,-1.73,-20.79,-17.07,0,*5F
1493924734.9,39509,14.06,73692.0,-1.71,-20.09,-16.93,0,*57
1493924736.14,39510,14.06,73692.5,-1.71,-19.95,-17.41,0,*5E
1493924737.35,39511,14.06,73694.8,-1.71,-20.25,-18.11,0,*54
1493924738.61,39512,14.0,73688.5,-1.73,-20.89,-18.93,0,*59
1493924739.86,39513,14.0,73690.5,-1.73,-21.57,-19.99,0,*51
1493924741.09,39514,14.0,73692.5,-1.73,-21.43,-19.99,0,*53
1493924742.32,39515,14.0,73688.5,-1.73,-21.17,-19.71,0,*55
1493924743.55,39516,14.0,73692.8,-1.73,-21.39,-19.51,0,*58
1493924744.84,39517,14.0,73694.5,-1.73,-22.17,-19.31,0,*50
1493924746.07,39518,14.0,73692.8,-1.75,-22.37,-19.27,0,*5C
1493924747.27,39519,14.06,73696.3,-1.75,-22.03,-18.83,0,*55
1493924748.53,39520,14.0,73692.5,-1.73,-21.57,-18.49,0,*5D
1493924749.76,39521,14.06,73696.3,-1.75,-21.27,-19.07,0,*56
1493924750.96,39522,14.06,73694.5,-1.75,-21.43,-19.91,0,*58
1493924752.18,39523,14.0,73692.3,-1.75,-22.07,-20.39,0,*52
1493924753.44,39524,14.06,73696.3,-1.75,-22.31,-20.49,0,*57
1493924754.71,39525,14.06,73696.5,-1.73,-22.47,-21.17,0,*5B
1493924755.95,39526,14.0,73692.3,-1.75,-22.53,-21.23,0,*5C
1493924757.22,39527,14.0,73692.3,-1.75,-22.17,-21.27,0,*59
1493924758.49,39528,14.0,73692.5,-1.77,-22.03,-21.27,0,*51
1493924759.73,39529,14.06,73698.0,-1.77,-22.53,-22.03,0,*50
1493924760.96,39530,14.0,73696.5,-1.77,-22.97,-22.41,0,*56
1493924762.2,39531,14.0,73696.5,-1.81,-23.29,-22.93,0,*55
1493924763.45,39532,14.06,73698.3,-1.77,-23.39,-23.03,0,*56
1493924764.74,39533,14.0,73694.3,-1.77,-23.53,-23.29,0,*53
1493924766.03,39534,14.0,73694.3,-1.77,-23.65,-23.33,0,*5A
1493924767.26,39535,14.0,73694.3,-1.81,-23.79,-23.23,0,*5E
1493924768.53,39536,14.0,73694.8,-1.77,-23.85,-22.97,0,*59
1493924769.73,39537,14.06,73694.0,-1.81,-23.89,-22.93,0,*59
1493924770.94,39538,14.0,73694.3,-1.81,-23.89,-22.63,0,*59
1493924772.21,39539,14.0,73694.3,-1.83,-23.75,-22.17,0,*5A
1493924773.47,39540,14.0,73692.3,-1.85,-23.49,-21.87,0,*57
1493924774.71,39541,14.0,73692.0,-1.83,-23.13,-21.47,0,*53
1493924775.91,39542,14.06,73692.0,-1.81,-22.67,-20.93,0,*58
1493924777.17,39543,14.0,73692.5,-1.83,-21.83,-20.73,0,*5C
1493924778.44,39544,14.0,73694.8,-1.83,-21.67,-20.59,0,*59
1493924779.68,39545,14.0,73694.0,-1.83,-21.17,-20.25,0,*54
1493924780.95,39546,14.0,73690.3,-1.83,-20.59,-19.65,0,*52
1493924782.18,39547,14.06,73694.0,-1.83,-20.09,-19.37,0,*51
1493924783.41,39548,14.0,73690.3,-1.83,-19.71,-19.13,0,*5D
1493924784.65,39549,14.0,73692.3,-1.83,-19.07,-18.45,0,*5F
1493924785.88,39550,14.06,73692.5,-1.85,-18.65,-18.01,0,*54
1493924787.11,39551,14.06,73694.3,-1.85,-18.17,-17.41,0,*5B
1493924788.36,39552,14.0,73694.3,-1.85,-17.63,-16.69,0,*5F
1493924789.62,39553,14.0,73694.3,-1.85,-17.03,-16.09,0,*5E
1493924790.89,39554,14.0,73692.5,-1.83,-16.17,-15.49,0,*5C
1493924792.12,39555,14.0,73690.8,-1.85,-15.35,-15.07,0,*52
1493924793.34,39556,14.0,73690.3,-1.85,-14.61,-14.75,0,*55
1493924794.57,39557,14.0,73690.3,-1.85,-13.87,-14.23,0,*58
1493924795.8,39558,14.0,73690.5,-1.85,-13.47,-13.97,0,*53
1493924797.03,39559,14.0,73690.0,-1.85,-13.01,-13.23,0,*5F
1493924798.33,39560,14.06,73690.5,-1.83,-12.75,-12.71,0,*57
1493924799.58,39561,14.0,73692.5,-1.85,-12.11,-11.77,0,*57
1493924800.81,39562,14.0,73688.5,-1.85,-11.67,-11.11,0,*56
1493924802.07,39563,14.06,73692.0,-1.85,-11.29,-10.67,0,*5D
1493924803.28,39564,14.0,73690.5,-1.85,-10.93,-10.27,0,*5E
1493924804.53,39565,14.0,73692.3,-1.85,-10.63,-9.61,0,*6A
1493924805.73,39566,14.0,73694.5,-1.85,-10.15,-9.27,0,*6A
1493924806.96,39567,14.0,73692.8,-1.83,-9.67,-8.97,0,*5A
1493924808.17,39568,14.0,73690.5,-1.85,-9.49,-8.93,0,*5B
1493924809.4,39569,14.0,73698.3,-1.83,-9.23,-8.85,0,*57
1493924810.66,39570,14.0,73696.5,-1.83,-9.11,-8.85,0,*5E
1493924811.87,39571,14.0,73698.0,-1.83,-8.97,-8.75,0,*5F
1493924813.1,39572,14.0,73698.0,-1.83,-8.97,-8.89,0,*5F
1493924814.33,39573,14.0,73698.3,-1.83,-9.01,-8.89,0,*50
1493924815.58,39574,14.0,73696.0,-1.83,-9.27,-9.11,0,*53
1493924816.8,39575,14.0,73696.5,-1.85,-9.41,-9.27,0,*51
1493924818.05,39576,14.0,73696.0,-1.83,-9.53,-9.27,0,*57
1493924819.27,39577,14.0,73696.3,-1.85,-9.71,-9.57,0,*57
1493924820.46,39578,14.0,73696.5,-1.81,-9.97,-9.67,0,*57
1493924821.67,39579,14.0,73696.3,-1.81,-10.09,-9.57,0,*6A
1493924822.87,39580,14.0,73696.3,-1.81,-10.23,-9.67,0,*67
1493924824.1,39581,14.0,73696.3,-1.81,-10.41,-9.67,0,*62
1493924825.31,39582,14.0,73698.0,-1.81,-10.53,-9.57,0,*61
1493924826.56,39583,14.0,73696.3,-1.81,-10.79,-9.57,0,*68
1493924827.78,39584,14.0,73696.0,-1.83,-11.19,-9.67,0,*69
1493924829.01,39585,14.0,73698.5,-1.81,-11.33,-9.67,0,*62
1493924830.23,39586,14.0,73696.3,-1.81,-11.73,-9.71,0,*62
1493924831.46,39587,14.0,73696.5,-1.81,-12.15,-10.05,0,*5B
1493924832.7,39588,14.0,73696.5,-1.77,-12.47,-10.27,0,*5A
1493924833.94,39589,14.0,73696.5,-1.81,-13.01,-10.53,0,*52
1493924835.17,39590,14.0,73700.8,-1.81,-13.47,-10.79,0,*50
1493924836.43,39591,14.0,73696.8,-1.77,-13.79,-10.97,0,*55
1493924837.67,39592,14.0,73700.5,-1.81,-14.05,-11.19,0,*54
1493924838.9,39593,14.0,73702.5,-1.81,-14.19,-11.33,0,*50
1493924840.12,39594,14.0,73698.8,-1.81,-14.33,-11.51,0,*5B
1493924841.35,39595,14.0,73700.5,-1.81,-14.29,-11.59,0,*59
1493924842.59,39596,14.0,73704.0,-1.81,-14.15,-11.51,0,*5D
1493924843.8,39597,14.0,73704.3,-1.81,-13.73,-11.45,0,*5E
1493924845.03,39598,14.0,73704.5,-1.81,-13.61,-11.45,0,*52
1493924846.28,39599,14.06,73704.8,-1.81,-13.37,-11.59,0,*5D
1493924847.51,39600,14.0,73700.3,-1.81,-13.55,-11.73,0,*52
1493924848.74,39601,14.0,73700.0,-1.81,-13.55,-11.77,0,*57
1493924849.99,39602,14.0,73696.3,-1.81,-13.33,-11.85,0,*59
1493924851.26,39603,14.0,73700.8,-1.77,-12.97,-12.07,0,*57
1493924852.51,39604,14.0,73698.5,-1.81,-12.71,-12.15,0,*52
1493924853.72,39605,14.0,73700.3,-1.81,-12.43,-12.21,0,*55
1493924854.96,39606,14.0,73700.3,-1.81,-12.21,-12.35,0,*57
1493924856.25,39607,14.06,73704.5,-1.77,-11.97,-12.75,0,*55
1493924857.52,39608,14.0,73706.3,-1.77,-11.97,-13.19,0,*51
1493924858.77,39609,14.0,73700.5,-1.81,-11.97,-13.61,0,*56
1493924859.99,39610,14.0,73700.8,-1.81,-11.97,-13.93,0,*53
1493924861.24,39611,14.0,73702.0,-1.81,-11.89,-14.43,0,*57
1493924862.53,39612,14.0,73700.5,-1.83,-11.89,-14.47,0,*52
1493924863.78,39613,14.0,73702.0,-1.81,-12.07,-14.75,0,*55
1493924865.07,39614,14.0,73702.0,-1.83,-12.35,-14.93,0,*59
1493924866.33,39615,14.0,73698.8,-1.83,-12.47,-14.93,0,*5D
1493924867.59,39616,14.0,73702.0,-1.85,-12.53,-14.93,0,*5D
1493924868.87,39617,14.0,73702.8,-1.83,-12.75,-14.93,0,*5E
1493924870.13,39618,14.0,73700.8,-1.83,-12.89,-14.79,0,*56
1493924871.4,39619,14.0,73696.3,-1.83,-12.93,-14.47,0,*51
1493924872.63,39620,14.0,73700.3,-1.83,-12.93,-14.19,0,*50
1493924873.89,39621,14.0,73698.5,-1.83,-13.01,-13.93,0,*5E
1493924875.14,39622,14.0,73702.3,-1.83,-13.47,-13.83,0,*5E
1493924876.37,39623,14.0,73698.8,-1.83,-14.29,-13.55,0,*5B
1493924877.59,39624,14.0,73692.0,-1.85,-14.97,-13.93,0,*55
1493924878.81,39625,14.0,73696.8,-1.85,-15.63,-14.05,0,*56
1493924880.05,39626,14.0,73696.0,-1.83,-15.95,-14.15,0,*5B
1493924881.27,39627,14.0,73698.3,-1.85,-16.37,-14.43,0,*54
1493924882.53,39628,14.0,73698.8,-1.83,-16.65,-14.69,0,*52
1493924883.77,39629,14.06,73696.5,-1.85,-16.83,-14.97,0,*5C
1493924885.0,39630,14.0,73696.3,-1.85,-17.03,-15.25,0,*55
1493924886.29,39631,14.0,73694.5,-1.83,-17.21,-15.43,0,*52
1493924887.54,39632,14.06,73696.8,-1.83,-17.35,-15.49,0,*5E
1493924888.75,39633,14.0,73698.3,-1.85,-17.31,-15.53,0,*56
1493924890.01,39634,14.06,73702.8,-1.83,-17.11,-15.49,0,*5E
1493924891.28,39635,14.0,73698.5,-1.83,-16.65,-15.29,0,*5B
1493924892.49,39636,14.0,73700.8,-1.85,-16.37,-15.07,0,*55
1493924893.75,39637,14.06,73700.8,-1.85,-15.85,-14.97,0,*56
1493924894.98,39638,14.0,73700.8,-1.85,-15.53,-14.79,0,*52
1493924896.2,39639,14.0,73702.3,-1.85,-15.21,-14.65,0,*5B
1493924897.46,39640,14.0,73698.8,-1.85,-14.75,-14.47,0,*55
1493924898.67,39641,14.0,73696.3,-1.85,-14.37,-14.23,0,*50
1493924899.9,39642,14.0,73696.0,-1.85,-13.97,-14.11,0,*5F
1493924901.1,39643,14.0,73698.0,-1.85,-13.73,-14.11,0,*54
1493924902.35,39644,14.0,73698.5,-1.87,-13.47,-13.97,0,*5F
1493924903.55,39645,14.0,73696.8,-1.85,-13.11,-13.93,0,*5B